KO6MEX-13 Weather Reports


time (UTC)temp
C
wind
direction
speed
KPH
gust
KPH
rain 1hr
cm
rain 24hr
cm
rain mn
cm
humidity
%
barometer
mb
20260506145201 15 27 0.0 1.6 0.00 0.00 0.00 73 1022.6
20260506144659 15 27 0.0 4.8 0.00 0.00 0.00 74 1022.4
20260506144155 14 51 0.0 1.6 0.00 0.00 0.00 77 1022.5
20260506143653 13 66 0.0 3.2 0.00 0.00 0.00 77 1022.3
20260506143150 13 57 0.0 1.6 0.00 0.00 0.00 81 1022.4
20260506142649 13 33 1.6 3.2 0.00 0.00 0.00 81 1022.4
20260506142146 13 52 0.0 1.6 0.00 0.00 0.00 82 1022.1
20260506141644 13 62 0.0 0.0 0.00 0.00 0.00 79 1022.2
20260506141142 12 62 0.0 0.0 0.00 0.00 0.00 81 1022.3
20260506140639 12 62 0.0 1.6 0.00 0.00 0.00 82 1022.2
20260506140136 11 51 0.0 0.0 0.00 0.00 0.00 88 1022.1
20260506135633 11 53 0.0 0.0 0.00 0.00 0.00 87 1021.9
20260506135129 11 69 0.0 0.0 0.00 0.00 0.00 86 1022.1
20260506134626 10 54 0.0 0.0 0.00 0.00 0.00 89 1022.1
20260506134122 10 57 1.6 3.2 0.00 0.00 0.00 89 1022.1
20260506133619 10 52 0.0 0.0 0.00 0.00 0.00 92 1022.0
20260506133116 9 52 0.0 0.0 0.00 0.00 0.00 93 1022.0
20260506132614 9 52 0.0 0.0 0.00 0.00 0.00 94 1022.1
20260506132110 8 52 0.0 0.0 0.00 0.00 0.00 93 1021.9
20260506131608 8 67 0.0 0.0 0.00 0.00 0.00 92 1021.9
20260506131104 9 67 0.0 1.6 0.00 0.00 0.00 92 1021.8
20260506130601 9 67 0.0 0.0 0.00 0.00 0.00 93 1021.7
20260506130059 9 47 0.0 0.0 0.00 0.00 0.00 93 1021.6
20260506125557 9 46 0.0 1.6 0.00 0.00 0.00 93 1021.4
20260506125054 9 45 0.0 1.6 0.00 0.00 0.00 94 1021.4
20260506124552 9 24 3.2 8.0 0.00 0.00 0.00 94 1021.5
20260506124049 9 31 1.6 3.2 0.00 0.00 0.00 93 1021.5
20260506123547 9 32 0.0 1.6 0.00 0.00 0.00 94 1021.5
20260506123045 9 32 1.6 1.6 0.00 0.00 0.00 93 1021.4
20260506122541 9 32 0.0 1.6 0.00 0.00 0.00 93 1021.5
20260506122040 9 30 1.6 3.2 0.00 0.00 0.00 94 1021.4
20260506121537 9 37 1.6 3.2 0.00 0.00 0.00 93 1021.5
20260506121033 9 37 1.6 1.6 0.00 0.00 0.00 93 1021.6
20260506120531 9 32 1.6 1.6 0.00 0.00 0.00 93 1021.6
20260506120028 9 26 3.2 4.8 0.00 0.00 0.00 93 1021.7
20260506115526 9 27 1.6 3.2 0.00 0.00 0.00 93 1021.6
20260506115024 9 27 3.2 4.8 0.00 0.00 0.00 93 1021.6
20260506114521 10 41 0.0 1.6 0.00 0.00 0.00 93 1021.6
20260506114020 9 26 1.6 4.8 0.00 0.00 0.00 94 1021.7
20260506113517 9 23 4.8 4.8 0.00 0.00 0.00 95 1021.7
20260506113014 9 30 1.6 4.8 0.00 0.00 0.00 95 1021.5
20260506112511 9 33 0.0 1.6 0.00 0.00 0.00 95 1021.7
20260506112008 8 34 1.6 1.6 0.00 0.00 0.00 96 1021.8
20260506111506 8 37 0.0 0.0 0.00 0.00 0.00 95 1021.8
20260506111003 8 38 0.0 0.0 0.00 0.00 0.00 95 1021.6
20260506110501 8 37 0.0 0.0 0.00 0.00 0.00 95 1021.6
20260506105957 8 38 0.0 0.0 0.00 0.00 0.00 94 1021.7
20260506105453 9 38 0.0 0.0 0.00 0.00 0.00 94 1021.7
20260506104951 9 37 0.0 0.0 0.00 0.00 0.00 94 1021.6
20260506104449 9 27 0.0 0.0 0.00 0.00 0.00 95 1021.7
20260506103947 9 27 0.0 0.0 0.00 0.00 0.00 94 1021.3
20260506103444 9 26 0.0 0.0 0.00 0.00 0.00 94 1021.5
20260506102940 9 27 1.6 1.6 0.00 0.00 0.00 94 1021.5
20260506102439 10 27 0.0 0.0 0.00 0.00 0.00 93 1021.5
20260506101936 10 27 0.0 0.0 0.00 0.00 0.00 93 1021.6
20260506101432 10 27 0.0 0.0 0.00 0.00 0.00 93 1021.5
20260506100929 10 26 0.0 0.0 0.00 0.00 0.00 93 1021.7
20260506100428 10 26 0.0 1.6 0.00 0.00 0.00 93 1021.5
20260506095925 10 26 0.0 3.2 0.00 0.00 0.00 94 1021.5
20260506095424 10 25 0.0 1.6 0.00 0.00 0.00 94 1021.4
20260506094919 10 26 1.6 3.2 0.00 0.00 0.00 94 1021.5
20260506094418 10 25 3.2 4.8 0.00 0.00 0.00 93 1021.5
20260506093915 10 28 0.0 1.6 0.00 0.00 0.00 93 1021.5
20260506093413 10 28 3.2 3.2 0.00 0.00 0.00 93 1021.7
20260506092911 10 28 1.6 1.6 0.00 0.00 0.00 93 1021.6
20260506092409 10 30 1.6 3.2 0.00 0.00 0.00 93 1021.4
20260506091905 10 25 1.6 3.2 0.00 0.00 0.00 93 1021.4
20260506091403 10 23 1.6 8.0 0.00 0.00 0.00 93 1021.5
20260506090900 10 20 4.8 8.0 0.00 0.00 0.00 93 1021.7
20260506090358 10 16 4.8 4.8 0.00 0.00 0.00 92 1021.7
20260506085854 10 28 1.6 3.2 0.00 0.00 0.00 92 1021.9
20260506085350 10 27 3.2 4.8 0.00 0.00 0.00 93 1021.7
20260506084847 10 24 3.2 4.8 0.00 0.00 0.00 92 1021.9
20260506084344 10 23 3.2 4.8 0.00 0.00 0.00 93 1021.8
20260506083840 10 22 3.2 4.8 0.00 0.00 0.00 93 1021.9
20260506083338 10 25 3.2 3.2 0.00 0.00 0.00 93 1021.8
20260506082835 10 25 0.0 0.0 0.00 0.00 0.00 92 1022.0
20260506082332 10 25 0.0 0.0 0.00 0.00 0.00 93 1021.9
20260506081827 11 25 0.0 0.0 0.00 0.00 0.00 93 1021.9
20260506081326 10 25 0.0 0.0 0.00 0.00 0.00 93 1021.8
20260506080823 11 25 0.0 1.6 0.00 0.00 0.00 93 1021.9
20260506080319 11 25 0.0 0.0 0.00 0.00 0.00 92 1022.0
20260506073304 11 36 1.6 4.8 0.00 0.00 0.00 92 1021.7
20260506072800 11 36 1.6 3.2 0.00 0.00 0.00 92 1021.8
20260506072258 11 36 1.6 3.2 0.00 0.00 0.00 92 1021.8
20260506071755 11 36 3.2 3.2 0.00 0.00 0.00 92 1021.6
20260506071254 11 36 3.2 3.2 0.00 0.00 0.00 92 1021.7
20260506070750 11 38 1.6 3.2 0.00 0.00 0.00 91 1021.8
20260506070247 11 38 0.0 0.0 0.00 0.00 0.00 91 1021.6
20260506062224 12 32 0.0 3.2 0.00 0.00 0.00 88 1021.5
20260506061720 12 15 3.2 4.8 0.00 0.00 0.00 89 1021.1
20260506061218 12 26 1.6 4.8 0.00 0.00 0.00 89 1021.3
20260506060716 12 49 0.0 0.0 0.00 0.00 0.00 88 1021.3
20260506060213 12 50 0.0 1.6 0.00 0.00 0.00 88 1021.3
20260506051145 12 30 3.2 3.2 0.00 0.00 0.00 86 1021.0
20260506050643 12 346 3.2 3.2 0.00 0.00 0.00 87 1021.0
20260506050140 12 11 3.2 4.8 0.00 0.00 0.00 87 1020.8
20260506045133 12 38 0.0 1.6 0.00 0.00 0.00 86 1020.9
20260506044631 12 38 0.0 0.0 0.00 0.00 0.00 85 1020.9
20260506044128 12 63 0.0 0.0 0.00 0.00 0.00 84 1020.9
20260506043625 12 43 0.0 1.6 0.00 0.00 0.00 84 1020.7
20260506043123 13 60 1.6 1.6 0.00 0.00 0.00 83 1020.7
20260506042622 12 49 1.6 3.2 0.00 0.00 0.00 84 1020.6
20260506042119 13 32 0.0 4.8 0.00 0.00 0.00 83 1020.6
20260506041618 13 59 1.6 1.6 0.00 0.00 0.00 83 1020.6
20260506041114 13 40 0.0 1.6 0.00 0.00 0.00 83 1020.3
20260506040612 13 36 1.6 1.6 0.00 0.00 0.00 82 1020.6
20260506040108 13 299 1.6 9.7 0.00 0.00 0.00 82 1020.2
20260506035605 13 31 0.0 3.2 0.00 0.00 0.00 81 1020.3
20260506035102 13 45 0.0 1.6 0.00 0.00 0.00 80 1020.3
20260506034559 13 61 0.0 1.6 0.00 0.00 0.00 80 1019.9
20260506034056 13 13 1.6 8.0 0.00 0.00 0.00 80 1019.9
20260506033553 13 104 0.0 4.8 0.00 0.00 0.00 79 1020.1
20260506033050 13 292 1.6 11.3 0.00 0.00 0.00 79 1020.0
20260506032547 13 332 0.0 1.6 0.00 0.00 0.00 78 1019.7
20260506032044 13 4 4.8 8.0 0.00 0.00 0.00 78 1019.7
20260506031542 13 268 1.6 3.2 0.00 0.00 0.00 78 1019.5
20260506031038 13 131 0.0 1.6 0.00 0.00 0.00 77 1019.5
20260506030537 13 277 3.2 3.2 0.00 0.00 0.00 77 1019.7
20260506030034 13 316 1.6 3.2 0.00 0.00 0.00 76 1019.4
20260506025531 14 8 3.2 11.3 0.00 0.00 0.00 75 1019.3
20260506025027 14 137 0.0 1.6 0.00 0.00 0.00 74 1019.3
20260506024524 14 41 0.0 4.8 0.00 0.00 0.00 74 1019.2
20260506024020 14 273 4.8 8.0 0.00 0.00 0.00 73 1019.0
20260506023516 15 44 3.2 17.7 0.00 0.00 0.00 72 1019.0
20260506023014 15 19 4.8 11.3 0.00 0.00 0.00 71 1019.1
20260506022511 15 343 4.8 8.0 0.00 0.00 0.00 71 1018.9
20260506022008 15 39 0.0 4.8 0.00 0.00 0.00 70 1019.1
20260506021506 15 11 6.4 14.5 0.00 0.00 0.00 68 1018.9
20260506021003 15 4 6.4 9.7 0.00 0.00 0.00 66 1019.0
20260506020501 15 50 0.0 1.6 0.00 0.00 0.00 65 1018.8
20260506015957 15 4 4.8 9.7 0.00 0.00 0.00 63 1018.8
20260506015455 16 88 1.6 9.7 0.00 0.00 0.00 62 1018.8
20260506014952 16 24 9.7 12.9 0.00 0.00 0.00 60 1018.6
20260506014449 16 14 6.4 12.9 0.00 0.00 0.00 59 1018.6
20260506013945 16 68 0.0 14.5 0.00 0.00 0.00 58 1018.7
20260506013443 16 44 3.2 20.9 0.00 0.00 0.00 58 1018.6
20260506012939 17 58 1.6 4.8 0.00 0.00 0.00 57 1018.6
20260506012436 17 3 4.8 11.3 0.00 0.00 0.00 57 1018.6
20260506011933 17 59 0.0 9.7 0.00 0.00 0.00 57 1018.7
20260506011430 17 81 0.0 9.7 0.00 0.00 0.00 54 1018.6
20260506010927 18 56 1.6 9.7 0.00 0.00 0.00 54 1018.6
20260506010426 18 65 1.6 8.0 0.00 0.00 0.00 54 1018.7
20260506005921 19 29 1.6 9.7 0.00 0.00 0.00 53 1018.6
20260506005420 19 165 1.6 3.2 0.00 0.00 0.00 53 1018.6
20260506004914 18 30 3.2 4.8 0.00 0.00 0.00 55 1018.5
20260506004413 19 238 8.0 14.5 0.00 0.00 0.00 54 1018.6
20260506003908 19 40 0.0 4.8 0.00 0.00 0.00 52 1018.5
20260506003405 19 147 0.0 8.0 0.00 0.00 0.00 54 1018.5
20260506002902 20 16 1.6 9.7 0.00 0.00 0.00 52 1018.5
20260506002358 19 88 0.0 8.0 0.00 0.00 0.00 55 1018.6
20260506001853 19 152 6.4 8.0 0.00 0.00 0.00 57 1018.6
20260506001350 20 234 8.0 11.3 0.00 0.00 0.00 58 1018.4
20260506000847 19 115 1.6 3.2 0.00 0.00 0.00 58 1018.5
20260506000346 18 166 4.8 9.7 0.00 0.00 0.00 60 1018.3
20260505235842 18 272 8.0 12.9 0.00 0.00 0.00 61 1018.3
20260505235339 19 194 1.6 3.2 0.00 0.00 0.00 59 1018.5
20260505234836 19 245 4.8 9.7 0.00 0.00 0.00 59 1018.3
20260505234334 18 200 3.2 3.2 0.00 0.00 0.00 59 1018.3
20260505233831 20 0 1.6 11.3 0.00 0.00 0.00 59 1018.3
20260505233329 20 242 3.2 4.8 0.00 0.00 0.00 57 1018.3
20260505232826 18 234 4.8 12.9 0.00 0.00 0.00 60 1018.5
20260505232323 18 132 1.6 8.0 0.00 0.00 0.00 60 1018.5
20260505231820 18 218 3.2 11.3 0.00 0.00 0.00 62 1018.6
20260505231318 18 242 6.4 12.9 0.00 0.00 0.00 63 1018.3
20260505230816 18 225 8.0 14.5 0.00 0.00 0.00 62 1018.2
20260505230313 18 216 8.0 11.3 0.00 0.00 0.00 60 1018.4
20260505225809 18 264 6.4 14.5 0.00 0.00 0.00 62 1018.7
20260505225306 18 207 8.0 20.9 0.00 0.00 0.00 62 1018.7
20260505224801 18 239 11.3 20.9 0.00 0.00 0.00 61 1018.4
20260505224259 18 185 12.9 16.1 0.00 0.00 0.00 61 1018.5
20260505223757 18 189 8.0 16.1 0.00 0.00 0.00 60 1018.7
20260505223253 18 242 11.3 16.1 0.00 0.00 0.00 60 1018.7
20260505222749 18 219 8.0 16.1 0.00 0.00 0.00 59 1018.9
20260505222246 18 207 12.9 17.7 0.00 0.00 0.00 58 1018.8
20260505221743 18 275 12.9 16.1 0.00 0.00 0.00 60 1019.0
20260505221239 18 199 14.5 17.7 0.00 0.00 0.00 58 1018.8
20260505220736 20 229 11.3 16.1 0.00 0.00 0.00 57 1018.8
20260505220233 20 110 0.0 9.7 0.00 0.00 0.00 55 1018.9
20260505215732 19 62 3.2 11.3 0.00 0.00 0.00 55 1018.9
20260505215229 18 77 0.0 11.3 0.00 0.00 0.00 55 1019.2
20260505214726 18 267 11.3 16.1 0.00 0.00 0.00 55 1019.0
20260505214224 18 201 11.3 17.7 0.00 0.00 0.00 55 1019.0
20260505213721 18 260 8.0 12.9 0.00 0.00 0.00 58 1019.1
20260505213218 18 270 12.9 17.7 0.00 0.00 0.00 59 1019.1
20260505212714 17 264 3.2 14.5 0.00 0.00 0.00 60 1019.3
20260505212212 17 202 8.0 12.9 0.00 0.00 0.00 60 1019.1
20260505211708 18 202 6.4 16.1 0.00 0.00 0.00 58 1019.2
20260505211206 17 249 6.4 9.7 0.00 0.00 0.00 59 1019.3
20260505210702 17 203 4.8 12.9 0.00 0.00 0.00 61 1019.2
20260505210159 17 250 6.4 17.7 0.00 0.00 0.00 60 1019.3
20260505205657 18 215 6.4 11.3 0.00 0.00 0.00 58 1019.4
20260505205155 17 196 6.4 11.3 0.00 0.00 0.00 58 1019.2
20260505204651 17 204 8.0 11.3 0.00 0.00 0.00 58 1019.2
20260505204149 17 187 3.2 16.1 0.00 0.00 0.00 58 1019.4
20260505203646 18 223 12.9 16.1 0.00 0.00 0.00 56 1019.4
20260505203143 18 215 4.8 17.7 0.00 0.00 0.00 57 1019.4
20260505202638 18 224 19.3 24.1 0.00 0.00 0.00 58 1019.1
20260505202134 17 243 8.0 12.9 0.00 0.00 0.00 60 1019.2
20260505201631 17 198 17.7 24.1 0.00 0.00 0.00 59 1019.4
20260505201129 17 197 4.8 9.7 0.00 0.00 0.00 61 1019.3
20260505200627 17 241 6.4 12.9 0.00 0.00 0.00 60 1019.5
20260505200124 17 54 4.8 14.5 0.00 0.00 0.00 60 1019.5
20260505195620 17 212 14.5 16.1 0.00 0.00 0.00 60 1019.3
20260505195117 17 229 8.0 16.1 0.00 0.00 0.00 61 1019.6
20260505194614 17 274 8.0 25.7 0.00 0.00 0.00 59 1019.6
20260505194109 17 219 8.0 12.9 0.00 0.00 0.00 59 1019.1
20260505193607 17 192 9.7 17.7 0.00 0.00 0.00 61 1019.2
20260505193104 17 220 14.5 22.5 0.00 0.00 0.00 60 1019.3
20260505192603 17 205 9.7 12.9 0.00 0.00 0.00 61 1019.4
20260505192100 17 209 9.7 16.1 0.00 0.00 0.00 61 1019.3
20260505191558 17 155 11.3 16.1 0.00 0.00 0.00 61 1019.5
20260505191055 18 223 9.7 24.1 0.00 0.00 0.00 59 1019.5
20260505190550 18 201 8.0 20.9 0.00 0.00 0.00 59 1019.5
20260505190046 17 238 16.1 22.5 0.00 0.00 0.00 60 1019.5
20260505185543 17 206 11.3 17.7 0.00 0.00 0.00 62 1019.3
20260505185039 17 199 11.3 14.5 0.00 0.00 0.00 62 1019.2
20260505184536 17 172 14.5 17.7 0.00 0.00 0.00 64 1019.4
20260505184033 17 172 11.3 16.1 0.00 0.00 0.00 64 1019.5
20260505183530 17 254 8.0 17.7 0.00 0.00 0.00 63 1019.4
20260505183027 17 226 11.3 14.5 0.00 0.00 0.00 62 1019.5
20260505182523 17 143 8.0 16.1 0.00 0.00 0.00 64 1019.4
20260505182020 17 232 4.8 11.3 0.00 0.00 0.00 62 1019.4
20260505181517 17 210 9.7 12.9 0.00 0.00 0.00 65 1019.4
20260505181015 17 186 8.0 12.9 0.00 0.00 0.00 63 1019.3
20260505180510 16 229 4.8 16.1 0.00 0.00 0.00 64 1019.4
20260505180008 17 221 6.4 14.5 0.00 0.00 0.00 62 1019.4
20260505175503 16 259 6.4 16.1 0.00 0.00 0.00 65 1019.4
20260505175000 16 200 4.8 14.5 0.00 0.00 0.00 66 1019.4
20260505174457 17 260 11.3 16.1 0.00 0.00 0.00 64 1019.3
20260505173953 16 213 9.7 14.5 0.00 0.00 0.00 64 1019.2
20260505173449 17 224 8.0 9.7 0.00 0.00 0.00 62 1019.1
20260505172947 16 205 8.0 12.9 0.00 0.00 0.00 66 1019.0
20260505172445 17 214 9.7 14.5 0.00 0.00 0.00 64 1019.1
20260505171944 16 269 3.2 11.3 0.00 0.00 0.00 64 1019.0
20260505171441 16 216 8.0 11.3 0.00 0.00 0.00 64 1018.9
20260505170938 16 206 6.4 11.3 0.00 0.00 0.00 64 1018.8
20260505170434 16 204 6.4 9.7 0.00 0.00 0.00 64 1019.2
20260505165930 16 194 3.2 11.3 0.00 0.00 0.00 64 1019.1
20260505165426 16 205 8.0 9.7 0.00 0.00 0.00 64 1019.0
20260505164922 16 205 8.0 12.9 0.00 0.00 0.00 63 1019.1
20260505164419 16 98 0.0 8.0 0.00 0.00 0.00 64 1019.1
20260505163917 16 216 4.8 8.0 0.00 0.00 0.00 65 1019.2
20260505163416 16 181 4.8 8.0 0.00 0.00 0.00 65 1019.3
20260505162914 16 208 8.0 12.9 0.00 0.00 0.00 64 1019.0
20260505162409 16 212 4.8 8.0 0.00 0.00 0.00 64 1019.0
20260505161907 16 188 4.8 8.0 0.00 0.00 0.00 63 1019.0
20260505161403 16 230 4.8 11.3 0.00 0.00 0.00 62 1018.9
20260505160901 16 77 0.0 1.6 0.00 0.00 0.00 63 1018.9
20260505160359 16 245 3.2 8.0 0.00 0.00 0.00 63 1018.9
20260505153337 16 149 0.0 9.7 0.00 0.00 0.00 68 1018.9
20260505152835 16 203 3.2 4.8 0.00 0.00 0.00 67 1018.7
20260505152332 15 41 1.6 3.2 0.00 0.00 0.00 71 1018.7
20260505151831 15 211 4.8 4.8 0.00 0.00 0.00 71 1018.8
20260505151328 15 275 3.2 3.2 0.00 0.00 0.00 70 1018.6
20260505150826 15 232 3.2 3.2 0.00 0.00 0.00 72 1018.6
20260505150323 15 340 1.6 3.2 0.00 0.00 0.00 74 1018.9